Regional Weather Roundup
Issued by NWS State College, PA

Home | Current Version | Previous Version | Text Only | Print | Product List | Glossary On
Versions: 1 2 3 4 5 6 7 8 9 10 11 12 13 14 15 16 17 18 19 20 21 22 23 24 25 26 27 28 29 30 31 32 33 34 35 36 37 38 39 40 41 42 43 44 45 46 47 48 49 50
000
ASUS41 KCTP 272310
RWRCTP

REGIONAL WEATHER ROUNDUP
NATIONAL WEATHER SERVICE STATE COLLEGE PA
700 PM EDT SUN MAY 27 2018

Note: "fair" indicates few or no clouds below 12,000 feet with no
significant weather and/or obstructions to visibility.

* = STATION THAT DOES NOT REPORT PRECIPITATION /E.G. RAIN...SNOW...ETC/
    THUNDER OR FOG.

PAZ002>004-007>009-013>016-020>023-029>032-280000-
WESTERN PENNSYLVANIA

CITY           SKY/WX    TMP DP  RH WIND       PRES   REMARKS
ERIE           FAIR      76  66  71 NW3       29.93R
MEADVILLE      FAIR      80  66  62 W8        29.95R
FRANKLIN*      FAIR      79  64  60 W6        29.96R
NEW CASTLE     FAIR      84  68  58 CALM      29.94S
BEAVER COUNTY  NOT AVBL
BUTLER*        FAIR      82  67  60 VRB5      29.95R
PITTSBURGH INT FAIR      82  63  52 NW6       29.94S
PITTSBURGH     FAIR      81  67  62 N3        29.94R
INDIANA*       SUNNY     79  68  69 CALM      29.99R
LATROBE        MOSUNNY   81  66  61 N6        29.96R
WASHINGTON CO* FAIR      81  68  64 NW3       29.97S
$$

PAZ004>006-010>012-017>019-024>028-033>037-041-042-045-046-049>053-280000-
CENTRAL PENNSYLVANIA

CITY           SKY/WX    TMP DP  RH WIND       PRES   REMARKS
BRADFORD       FAIR      78  60  53 NW6       29.96R
DUBOIS         FAIR      75  66  73 S3        29.96S
CLEARFIELD     FAIR      78  65  63 S5        29.95F
JOHNSTOWN      FAIR      75  65  70 CALM      30.00R
ALTOONA        FAIR      77  68  73 SE8       29.98S
STATE COLLEGE  PTSUNNY   75  68  78 E3        29.96S
WILLIAMSPORT   CLOUDY    71  64  78 E8        29.96R
SELINSGROVE    CLOUDY    70  64  81 SE6       29.97S
FT INDIANTOWN  CLOUDY    68  65  92 E6        30.00R
CAPITAL CITY   CLOUDY    72  65  78 E12       29.98R
HARRISBURG     CLOUDY    71  64  78 E12       29.98R
YORK           LGT RAIN  70  67  90 E10       29.98R
$$

PAZ038>040-043-044-047-048-054-055-060>062-067>071-280000-
EASTERN PENNSYLVANIA

CITY           SKY/WX    TMP DP  RH WIND       PRES   REMARKS
SCRANTON       CLOUDY    66  61  84 CALM      30.01S
MOUNT POCONO   FOG       57  57 100 E7        30.05S VSB 1/4
ALLENTOWN      CLOUDY    64  58  80 E8        30.04R
QUAKERTOWN*    CLOUDY    61  61 100 NE7       30.04R
READING        CLOUDY    66  63  90 E7        30.00S
LANCASTER      CLOUDY    68  63  84 E13       30.00R
COATESVILLE      N/A     63  61  94 E14G20    30.02S
POTTSTOWN      CLOUDY    61  61 100 NE8       30.04R FOG
BLUE BELL      CLOUDY    61  59  94 E7        30.05R
DOYLESTOWN     LGT RAIN  60  59  96 NE6       30.04R FOG
WILLOW GROVE   NOT AVBL
NORTH PHILA    CLOUDY    63  58  83 NE14      30.05R
PHILADELPHIA   LGT RAIN  62  59  90 E13       30.03R
$$




USA.gov is the U.S. government's official web portal to all federal, state and local government web resources and services.